Hourly Weather Alia

Today, 2 December, Wednesday

Time Temperature Precipitation Wind Pressure Humidity
00:00 +9°C° 0 mm 1 mps 706 mmHg 90%
01:00 +8°C° 0 mm 2 mps 706 mmHg 91%
02:00 +8°C° 0 mm 2 mps 706 mmHg 92%
03:00 +8°C° 0 mm 2 mps 706 mmHg 92%
04:00 +8°C° 0 mm 2 mps 705 mmHg 93%
05:00 +8°C° 0 mm 2 mps 705 mmHg 93%
06:00 +8°C° 0 mm 2 mps 705 mmHg 93%
07:00 +8°C° 0 mm 2 mps 705 mmHg 93%
08:00 +9°C° 0 mm 3 mps 705 mmHg 89%
09:00 +10°C° 0 mm 3 mps 705 mmHg 85%
10:00 +12°C° 0 mm 3 mps 705 mmHg 81%
11:00 +12°C° 0.2 mm 4 mps 705 mmHg 78%
12:00 +13°C° 0.2 mm 5 mps 704 mmHg 75%
13:00 +14°C° 0.2 mm 5 mps 704 mmHg 72%
14:00 +13°C° 0.2 mm 5 mps 703 mmHg 76%
15:00 +13°C° 0.2 mm 4 mps 703 mmHg 79%
16:00 +12°C° 0.2 mm 3 mps 703 mmHg 82%
17:00 +12°C° 0.1 mm 3 mps 703 mmHg 85%
18:00 +11°C° 0.1 mm 3 mps 703 mmHg 88%
19:00 +10°C° 0.1 mm 3 mps 703 mmHg 91%
20:00 +10°C° 0.1 mm 3 mps 703 mmHg 91%
21:00 +10°C° 0.1 mm 3 mps 703 mmHg 90%
22:00 +10°C° 0.1 mm 3 mps 702 mmHg 90%
23:00 +10°C° 0 mm 3 mps 702 mmHg 88%

Tomorrow, 3 December, Thursday

Time Temperature Precipitation Wind Pressure Humidity
00:00 +10°C° 0 mm 3 mps 702 mmHg 87%
01:00 +10°C° 0 mm 3 mps 702 mmHg 85%
02:00 +10°C° 0.2 mm 3 mps 701 mmHg 86%
03:00 +9°C° 0.2 mm 3 mps 701 mmHg 87%
04:00 +9°C° 0.2 mm 3 mps 701 mmHg 88%
05:00 +9°C° 0.4 mm 2 mps 701 mmHg 89%
06:00 +9°C° 0.4 mm 2 mps 700 mmHg 89%
07:00 +9°C° 0.4 mm 2 mps 700 mmHg 90%
08:00 +10°C° 1 mm 2 mps 700 mmHg 86%
09:00 +11°C° 1 mm 3 mps 701 mmHg 83%
10:00 +11°C° 1 mm 3 mps 701 mmHg 79%
11:00 +11°C° 1.8 mm 3 mps 700 mmHg 83%
12:00 +10°C° 1.8 mm 3 mps 700 mmHg 86%
13:00 +9°C° 1.8 mm 3 mps 700 mmHg 89%
14:00 +7°C° 2.9 mm 4 mps 700 mmHg 89%
15:00 +7°C° 2.9 mm 4 mps 699 mmHg 88%
16:00 +7°C° 2.9 mm 4 mps 699 mmHg 88%
17:00 +6°C° 0.2 mm 4 mps 700 mmHg 88%
18:00 +6°C° 0.2 mm 4 mps 700 mmHg 88%
19:00 +7°C° 0.2 mm 3 mps 700 mmHg 88%
20:00 +7°C° 0.1 mm 3 mps 700 mmHg 88%
21:00 +5°C° 0.1 mm 3 mps 700 mmHg 88%
22:00 +5°C° 0.1 mm 3 mps 700 mmHg 89%
23:00 +6°C° 0 mm 2 mps 700 mmHg 88%

Day after tomorrow, 4 December, Friday

Time Temperature Precipitation Wind Pressure Humidity
00:00 +6°C° 0 mm 2 mps 700 mmHg 88%
01:00 +6°C° 0 mm 2 mps 700 mmHg 87%
02:00 +6°C° 0.1 mm 2 mps 700 mmHg 87%
03:00 +6°C° 0.1 mm 2 mps 700 mmHg 87%
04:00 +6°C° 0.1 mm 2 mps 700 mmHg 87%
05:00 +6°C° 0 mm 2 mps 700 mmHg 86%
06:00 +6°C° 0 mm 2 mps 700 mmHg 85%
07:00 +6°C° 0 mm 2 mps 701 mmHg 83%
08:00 +7°C° 0 mm 2 mps 701 mmHg 79%
09:00 +8°C° 0 mm 2 mps 701 mmHg 74%
10:00 +9°C° 0 mm 2 mps 702 mmHg 69%
11:00 +10°C° 0 mm 2 mps 702 mmHg 67%
12:00 +11°C° 0 mm 3 mps 701 mmHg 65%
13:00 +11°C° 0 mm 3 mps 701 mmHg 63%
14:00 +11°C° 0 mm 3 mps 701 mmHg 66%
15:00 +11°C° 0 mm 3 mps 701 mmHg 69%
16:00 +10°C° 0 mm 3 mps 700 mmHg 72%
17:00 +9°C° 0 mm 3 mps 700 mmHg 75%
18:00 +9°C° 0 mm 3 mps 700 mmHg 78%
19:00 +8°C° 0 mm 3 mps 700 mmHg 81%
20:00 +8°C° 0.1 mm 3 mps 700 mmHg 83%
21:00 +8°C° 0.1 mm 3 mps 700 mmHg 85%
22:00 +7°C° 0.1 mm 4 mps 700 mmHg 87%
23:00 +8°C° 0.1 mm 4 mps 700 mmHg 88%

5 December, Saturday

Time Temperature Precipitation Wind Pressure Humidity
00:00 +8°C° 0.1 mm 4 mps 700 mmHg 89%
01:00 +8°C° 0.1 mm 4 mps 699 mmHg 90%
02:00 +8°C° 0.2 mm 4 mps 699 mmHg 90%
03:00 +8°C° 0.2 mm 4 mps 699 mmHg 91%
04:00 +8°C° 0.2 mm 4 mps 699 mmHg 91%
05:00 +8°C° 0.1 mm 4 mps 699 mmHg 91%
06:00 +8°C° 0.1 mm 4 mps 699 mmHg 91%
07:00 +8°C° 0.1 mm 4 mps 699 mmHg 90%
08:00 +9°C° 0.1 mm 5 mps 699 mmHg 84%
09:00 +11°C° 0.1 mm 6 mps 699 mmHg 77%
10:00 +12°C° 0.1 mm 7 mps 700 mmHg 70%
11:00 +14°C° 0.2 mm 7 mps 699 mmHg 69%
12:00 +13°C° 0.2 mm 8 mps 699 mmHg 67%
13:00 +15°C° 0.2 mm 8 mps 698 mmHg 66%
14:00 +14°C° 0.1 mm 7 mps 698 mmHg 69%
15:00 +14°C° 0.1 mm 5 mps 698 mmHg 72%
16:00 +13°C° 0.1 mm 4 mps 698 mmHg 75%
17:00 +12°C° 0.1 mm 4 mps 697 mmHg 79%
18:00 +11°C° 0.1 mm 4 mps 697 mmHg 82%
19:00 +10°C° 0.1 mm 3 mps 697 mmHg 86%
20:00 +10°C° 0.3 mm 3 mps 697 mmHg 86%
21:00 +10°C° 0.3 mm 3 mps 697 mmHg 87%
22:00 +10°C° 0.3 mm 3 mps 697 mmHg 87%
23:00 +9°C° 0.8 mm 3 mps 697 mmHg 89%

6 December, Sunday

Time Temperature Precipitation Wind Pressure Humidity
00:00 +8°C° 0.8 mm 3 mps 697 mmHg 91%
01:00 +7°C° 0.8 mm 4 mps 697 mmHg 93%
02:00 +7°C° 2.4 mm 3 mps 697 mmHg 92%
03:00 +7°C° 2.4 mm 2 mps 697 mmHg 91%
04:00 +6°C° 2.4 mm 2 mps 697 mmHg 90%
05:00 +6°C° 0.1 mm 2 mps 697 mmHg 90%
06:00 +6°C° 0.1 mm 2 mps 697 mmHg 90%
07:00 +4°C° 0.1 mm 3 mps 697 mmHg 90%
08:00 +5°C° 0.1 mm 3 mps 697 mmHg 85%
09:00 +7°C° 0.1 mm 3 mps 698 mmHg 81%
10:00 +7°C° 0.1 mm 4 mps 698 mmHg 76%
11:00 +8°C° 0.3 mm 3 mps 699 mmHg 74%
12:00 +9°C° 0.3 mm 3 mps 699 mmHg 71%
13:00 +9°C° 0.3 mm 3 mps 699 mmHg 69%
14:00 +9°C° 0.3 mm 3 mps 699 mmHg 71%
15:00 +8°C° 0.3 mm 3 mps 700 mmHg 73%
16:00 +8°C° 0.3 mm 3 mps 700 mmHg 75%
17:00 +7°C° 0 mm 2 mps 700 mmHg 78%
18:00 +6°C° 0 mm 2 mps 701 mmHg 81%
19:00 +6°C° 0 mm 1 mps 701 mmHg 85%
20:00 +6°C° 0 mm 1 mps 702 mmHg 85%
21:00 +6°C° 0 mm 1 mps 702 mmHg 85%
22:00 +6°C° 0 mm 1 mps 702 mmHg 86%
23:00 +5°C° 0 mm 2 mps 703 mmHg 86%

7 December, Monday

Time Temperature Precipitation Wind Pressure Humidity
00:00 +5°C° 0 mm 2 mps 703 mmHg 87%
01:00 +5°C° 0 mm 2 mps 703 mmHg 88%
02:00 +5°C° 0 mm 2 mps 703 mmHg 89%
03:00 +5°C° 0 mm 2 mps 703 mmHg 91%
04:00 +5°C° 0 mm 2 mps 703 mmHg 92%
05:00 +5°C° 0.1 mm 2 mps 703 mmHg 92%
06:00 +5°C° 0.1 mm 2 mps 703 mmHg 92%
07:00 +5°C° 0.1 mm 2 mps 704 mmHg 92%
08:00 +6°C° 0 mm 2 mps 704 mmHg 82%
09:00 +8°C° 0 mm 3 mps 705 mmHg 73%
10:00 +9°C° 0 mm 3 mps 705 mmHg 63%
11:00 +10°C° 0 mm 4 mps 705 mmHg 60%
12:00 +10°C° 0 mm 4 mps 705 mmHg 56%
13:00 +10°C° 0 mm 5 mps 705 mmHg 53%
14:00 +10°C° 0 mm 4 mps 705 mmHg 57%
15:00 +8°C° 0 mm 4 mps 704 mmHg 61%
16:00 +8°C° 0 mm 4 mps 704 mmHg 65%
17:00 +7°C° 0 mm 4 mps 704 mmHg 70%
18:00 +6°C° 0 mm 4 mps 704 mmHg 74%
19:00 +5°C° 0 mm 4 mps 704 mmHg 78%
20:00 +5°C° 0 mm 4 mps 704 mmHg 80%
21:00 +5°C° 0 mm 4 mps 704 mmHg 81%
22:00 +5°C° 0 mm 4 mps 704 mmHg 83%
23:00 +7°C° 0.2 mm 3 mps 704 mmHg 85%
Show more